When you browse on this site, cookies collect data to enhance your experience and personalize the content and advertising you see.
Visit our Privacy Policy to learn more. By continuing to use the site, you agree to this use of cookies and data.
  • In Romania
  • List of Countries
  • For 7 days
  • Water Temperature
  • Weather Map
  • Weather Widgets
  • user-avatar
    Login

    Hourly Weather Ganja

    Today, 25 January, Saturday

    Time Temperature Precipitation Wind Pressure Humidity
    00:00 -2°C° 0 mm 4 mps 733 mmHg 52%
    01:00 -3°C° 0 mm 4 mps 733 mmHg 53%
    02:00 -2°C° 0 mm 3 mps 733 mmHg 54%
    03:00 -2°C° 0 mm 3 mps 733 mmHg 55%
    04:00 -3°C° 0 mm 2 mps 733 mmHg 54%
    05:00 -3°C° 0 mm 2 mps 734 mmHg 54%
    06:00 -3°C° 0 mm 2 mps 734 mmHg 54%
    07:00 -2°C° 0 mm 2 mps 734 mmHg 52%
    08:00 -2°C° 0 mm 2 mps 734 mmHg 50%
    09:00 +1°C° 0 mm 1 mps 734 mmHg 49%
    10:00 +1°C° 0 mm 2 mps 734 mmHg 48%
    11:00 +2°C° 0 mm 2 mps 733 mmHg 47%
    12:00 +1°C° 0 mm 3 mps 733 mmHg 46%
    13:00 +2°C° 0 mm 3 mps 732 mmHg 45%
    14:00 +2°C° 0 mm 3 mps 732 mmHg 44%
    15:00 +2°C° 0 mm 3 mps 731 mmHg 43%
    16:00 +2°C° 0 mm 3 mps 731 mmHg 44%
    17:00 +2°C° 0 mm 2 mps 731 mmHg 46%
    18:00 +1°C° 0 mm 2 mps 731 mmHg 48%
    19:00 +1°C° 0 mm 2 mps 730 mmHg 47%
    20:00 +2°C° 0 mm 1 mps 730 mmHg 46%
    21:00 +2°C° 0 mm 1 mps 730 mmHg 45%
    22:00 +2°C° 0 mm 1 mps 730 mmHg 45%
    23:00 +2°C° 0 mm 1 mps 729 mmHg 46%

    Tomorrow, 26 January, Sunday

    Time Temperature Precipitation Wind Pressure Humidity
    00:00 +2°C° 0 mm 1 mps 729 mmHg 46%
    01:00 +1°C° 0 mm 2 mps 729 mmHg 46%
    02:00 +1°C° 0 mm 2 mps 729 mmHg 46%
    03:00 0°C° 0 mm 3 mps 728 mmHg 46%
    04:00 0°C° 0 mm 3 mps 728 mmHg 46%
    05:00 0°C° 0 mm 3 mps 728 mmHg 47%
    06:00 0°C° 0 mm 3 mps 728 mmHg 48%
    07:00 +2°C° 0 mm 2 mps 728 mmHg 46%
    08:00 +3°C° 0 mm 2 mps 728 mmHg 44%
    09:00 +4°C° 0 mm 2 mps 728 mmHg 41%
    10:00 +5°C° 0 mm 2 mps 728 mmHg 39%
    11:00 +5°C° 0 mm 3 mps 727 mmHg 37%
    12:00 +7°C° 0 mm 3 mps 727 mmHg 35%
    13:00 +8°C° 0 mm 3 mps 727 mmHg 35%
    14:00 +8°C° 0 mm 3 mps 727 mmHg 34%
    15:00 +9°C° 0 mm 3 mps 727 mmHg 33%
    16:00 +8°C° 0 mm 3 mps 727 mmHg 35%
    17:00 +7°C° 0 mm 3 mps 728 mmHg 37%
    18:00 +5°C° 0 mm 3 mps 728 mmHg 39%
    19:00 +5°C° 0 mm 3 mps 728 mmHg 39%
    20:00 +4°C° 0 mm 4 mps 729 mmHg 39%
    21:00 +4°C° 0 mm 4 mps 729 mmHg 40%
    22:00 +3°C° 0 mm 3 mps 730 mmHg 40%
    23:00 +4°C° 0 mm 2 mps 730 mmHg 41%

    Day after tomorrow, 27 January, Monday

    Time Temperature Precipitation Wind Pressure Humidity
    00:00 +4°C° 0 mm 2 mps 730 mmHg 42%
    01:00 +3°C° 0 mm 2 mps 731 mmHg 43%
    02:00 +3°C° 0 mm 2 mps 731 mmHg 45%
    03:00 +3°C° 0 mm 2 mps 731 mmHg 46%
    04:00 +2°C° 0 mm 2 mps 732 mmHg 48%
    05:00 +3°C° 0 mm 1 mps 732 mmHg 51%
    06:00 +3°C° 0 mm 1 mps 732 mmHg 53%
    07:00 +3°C° 0 mm 1 mps 733 mmHg 52%
    08:00 +4°C° 0 mm 1 mps 733 mmHg 51%
    09:00 +4°C° 0 mm 1 mps 734 mmHg 50%
    10:00 +5°C° 0 mm 1 mps 733 mmHg 50%
    11:00 +6°C° 0 mm 1 mps 733 mmHg 50%
    12:00 +6°C° 0 mm 1 mps 733 mmHg 51%
    13:00 +7°C° 0 mm 1 mps 732 mmHg 51%
    14:00 +7°C° 0 mm 1 mps 732 mmHg 51%
    15:00 +7°C° 0 mm 1 mps 732 mmHg 52%
    16:00 +6°C° 0 mm 1 mps 732 mmHg 55%
    17:00 +6°C° 0 mm 1 mps 732 mmHg 59%
    18:00 +4°C° 0 mm 0 mps 732 mmHg 62%
    19:00 +4°C° 0 mm 0 mps 732 mmHg 62%
    20:00 +3°C° 0 mm 0 mps 732 mmHg 62%
    21:00 +3°C° 0 mm 0 mps 732 mmHg 62%
    22:00 +4°C° 0 mm 1 mps 732 mmHg 62%
    23:00 +4°C° 0 mm 1 mps 731 mmHg 62%

    28 January, Tuesday

    Time Temperature Precipitation Wind Pressure Humidity
    00:00 +4°C° 0 mm 1 mps 731 mmHg 61%
    01:00 +3°C° 0 mm 1 mps 731 mmHg 61%
    02:00 +3°C° 0 mm 1 mps 731 mmHg 61%
    03:00 +3°C° 0 mm 1 mps 730 mmHg 61%
    04:00 +3°C° 0 mm 1 mps 730 mmHg 61%
    05:00 +3°C° 0 mm 1 mps 730 mmHg 61%
    06:00 +3°C° 0 mm 1 mps 730 mmHg 61%
    07:00 +3°C° 0 mm 1 mps 730 mmHg 58%
    08:00 +4°C° 0 mm 1 mps 730 mmHg 55%
    09:00 +4°C° 0 mm 0 mps 730 mmHg 52%
    10:00 +6°C° 0 mm 1 mps 730 mmHg 51%
    11:00 +7°C° 0 mm 1 mps 729 mmHg 49%
    12:00 +8°C° 0 mm 1 mps 728 mmHg 48%
    13:00 +8°C° 0 mm 1 mps 728 mmHg 47%
    14:00 +8°C° 0 mm 1 mps 727 mmHg 47%
    15:00 +9°C° 0 mm 1 mps 727 mmHg 47%
    16:00 +8°C° 0 mm 1 mps 727 mmHg 50%
    17:00 +7°C° 0 mm 1 mps 727 mmHg 53%
    18:00 +6°C° 0 mm 1 mps 727 mmHg 56%
    19:00 +6°C° 0 mm 1 mps 727 mmHg 57%
    20:00 +6°C° 0 mm 1 mps 727 mmHg 57%
    21:00 +5°C° 0 mm 1 mps 727 mmHg 58%
    22:00 +4°C° 0 mm 0 mps 727 mmHg 59%
    23:00 +4°C° 0 mm 0 mps 726 mmHg 61%

    29 January, Wednesday

    Time Temperature Precipitation Wind Pressure Humidity
    00:00 +3°C° 0 mm 0 mps 726 mmHg 62%
    01:00 +3°C° 0 mm 0 mps 726 mmHg 62%
    02:00 +3°C° 0 mm 0 mps 725 mmHg 62%
    03:00 +3°C° 0 mm 0 mps 725 mmHg 62%
    04:00 +3°C° 0 mm 0 mps 725 mmHg 61%
    05:00 +4°C° 0 mm 1 mps 724 mmHg 61%
    06:00 +4°C° 0 mm 1 mps 724 mmHg 60%
    07:00 +5°C° 0 mm 1 mps 724 mmHg 57%
    08:00 +5°C° 0 mm 1 mps 724 mmHg 54%
    09:00 +6°C° 0 mm 1 mps 724 mmHg 51%
    10:00 +7°C° 0 mm 1 mps 724 mmHg 49%
    11:00 +8°C° 0 mm 1 mps 724 mmHg 47%
    12:00 +9°C° 0 mm 1 mps 724 mmHg 45%
    13:00 +9°C° 0 mm 1 mps 723 mmHg 44%
    14:00 +9°C° 0 mm 1 mps 723 mmHg 43%
    15:00 +10°C° 0 mm 1 mps 723 mmHg 42%
    16:00 +9°C° 0 mm 1 mps 723 mmHg 44%
    17:00 +8°C° 0 mm 1 mps 724 mmHg 47%
    18:00 +8°C° 0 mm 1 mps 724 mmHg 49%
    19:00 +8°C° 0 mm 1 mps 724 mmHg 49%
    20:00 +7°C° 0 mm 1 mps 725 mmHg 50%
    21:00 +7°C° 0 mm 1 mps 725 mmHg 50%
    22:00 +6°C° 0 mm 2 mps 725 mmHg 50%
    23:00 +6°C° 0 mm 2 mps 725 mmHg 51%

    30 January, Thursday

    Time Temperature Precipitation Wind Pressure Humidity
    00:00 +6°C° 0 mm 2 mps 725 mmHg 52%
    01:00 +5°C° 0 mm 2 mps 725 mmHg 52%
    02:00 +5°C° 0 mm 2 mps 725 mmHg 52%
    03:00 +4°C° 0 mm 3 mps 726 mmHg 52%
    04:00 +4°C° 0 mm 3 mps 726 mmHg 52%
    05:00 +4°C° 0 mm 3 mps 726 mmHg 52%
    06:00 +4°C° 0 mm 2 mps 726 mmHg 52%
    07:00 +5°C° 0 mm 2 mps 726 mmHg 49%
    08:00 +6°C° 0 mm 2 mps 726 mmHg 47%
    09:00 +7°C° 0 mm 2 mps 726 mmHg 44%
    10:00 +8°C° 0 mm 2 mps 726 mmHg 42%
    11:00 +9°C° 0 mm 2 mps 726 mmHg 39%
    12:00 +10°C° 0 mm 3 mps 725 mmHg 37%
    13:00 +12°C° 0 mm 2 mps 725 mmHg 36%
    14:00 +12°C° 0 mm 2 mps 725 mmHg 36%
    15:00 +12°C° 0 mm 2 mps 724 mmHg 36%
    16:00 +10°C° 0 mm 2 mps 725 mmHg 39%
    17:00 +9°C° 0 mm 2 mps 725 mmHg 43%
    18:00 +9°C° 0 mm 1 mps 725 mmHg 46%
    19:00 +9°C° 0 mm 1 mps 725 mmHg 46%
    20:00 +8°C° 0 mm 1 mps 725 mmHg 47%
    21:00 +8°C° 0 mm 1 mps 724 mmHg 48%
    22:00 +8°C° 0 mm 1 mps 724 mmHg 48%
    23:00 +7°C° 0 mm 1 mps 724 mmHg 48%
    Show more